Stations météo

réclame
Mon MeteoGroup
Kalmar, Suède (2670): Température de l'air & dewpoint: 19.02.2018 00:00:00 - 25.02.2018 00:00:00 (CET)Kalmar, Suède (2670): Vitesse du vent: 19.02.2018 00:00:00 - 25.02.2018 00:00:00 (CET)Kalmar, Suède (2670): Direction du vent: 19.02.2018 00:00:00 - 25.02.2018 00:00:00 (CET)Kalmar, Suède (2670): reduced air pressure: 19.02.2018 00:00:00 - 25.02.2018 00:00:00 (CET)Kalmar, Suède (2670): visibility: 19.02.2018 00:00:00 - 25.02.2018 00:00:00 (CET)
Date & Time tt [°C] td [°C] ff [km/h] ff [knt] dd ppp [hPa] vv [km]
25.02.2018 00:00:00 -8,0 -9,1 15 8 NNW 1036,7 10
24.02.2018 23:00:00 -7,2 -8,0 11 6 N 1036,6 5
24.02.2018 22:00:00 -7,4 -8,2 15 8 NNW 1036,6 10
24.02.2018 21:00:00 -7,0 -7,7 15 8 NNW 1036,5 10
24.02.2018 20:00:00 -6,0 -6,5 15 8 NNW 1036,6 10
24.02.2018 19:00:00 -5,3 -5,8 15 8 N 1036,6 0,5
24.02.2018 18:00:00 -4,6 -5,0 13 7 N 1036,7 4,4
24.02.2018 17:00:00 -4,3 -5,5 11 6 N 1036,7 10
24.02.2018 16:00:00 -4,3 -4,8 13 7 NNE 1036,6 2,7
24.02.2018 15:00:00 -3,7 -6,2 15 8 NNE 1036,5 10
24.02.2018 14:00:00 -3,7 -5,0 13 7 NNE 1036,6 10
24.02.2018 13:00:00 -2,9 -5,9 15 8 NNE 1036,4 10
24.02.2018 12:00:00 -3,7 -4,7 11 6 N 1036,7 6
24.02.2018 11:00:00 -4,8 -5,3 15 8 NNW 1036,5 10
24.02.2018 10:00:00 -5,2 -5,9 13 7 NNW 1036,3 10
24.02.2018 09:00:00 -5,7 -6,2 13 7 NNW 1035,9 10
24.02.2018 08:00:00 -5,7 -6,0 15 8 NNW 1035,5 10
24.02.2018 07:00:00 -6,0 -6,5 13 7 N 1035,0 10
24.02.2018 06:00:00 -5,5 -5,9 13 7 NNW 1034,5 5
24.02.2018 05:00:00 -5,1 -5,4 13 7 N 1033,7 6
24.02.2018 04:00:00 -4,9 -5,3 13 7 N 1033,2 1,2
24.02.2018 03:00:00 -4,1 -4,5 11 6 NE 1032,8 0,8
24.02.2018 02:00:00 -4,7 -6,2 11 6 N 1032,4 10
24.02.2018 01:00:00 -6,2 -6,9 9 5 NNW 1031,9 8
24.02.2018 00:00:00 -4,9 -6,7 15 8 NNE 1031,4 10
23.02.2018 23:00:00 -4,7 -6,1 13 7 NNE 1030,9 10
23.02.2018 22:00:00 -3,2 -3,9 11 6 N 1030,6 10
23.02.2018 21:00:00 -3,2 -3,6 16 9 N 1030,0 1,8
23.02.2018 20:00:00 -2,8 -3,6 16 9 N 1029,4 10
23.02.2018 19:00:00 -2,2 -4,2 13 7 N 1028,8 10
23.02.2018 18:00:00 -1,8 -3,4 13 7 N 1028,3 10
23.02.2018 17:00:00 -1,9 -2,5 16 9 NNW 1027,7 10
23.02.2018 16:00:00 -1,9 -3,2 18 10 NNW 1027,1 10
23.02.2018 15:00:00 -1,7 -3,6 18 10 NNW 1027,1 10
23.02.2018 14:00:00 -1,5 -3,2 16 9 NNW 1026,9 10
23.02.2018 13:00:00 -1,3 -3,5 16 9 NNW 1026,9 10
23.02.2018 12:00:00 -1,4 -3,4 11 6 NW 1027,2 10
23.02.2018 11:00:00 -1,8 -3,7 13 7 WNW 1027,0 10
23.02.2018 10:00:00 -2,2 -3,8 15 8 W 1026,9 10
23.02.2018 09:00:00 -2,8 -4,4 15 8 W 1027,0 10
23.02.2018 08:00:00 -3,2 -5,1 16 9 W 1027,0 10
23.02.2018 07:00:00 -3,4 -5,4 13 7 W 1027,3 10
23.02.2018 06:00:00 -3,1 -5,3 11 6 W 1027,7 10
23.02.2018 05:00:00 -3,4 -5,3 9 5 WSW 1027,6 10
23.02.2018 04:00:00 -3,7 -5,2 8 4 W 1028,0 10
23.02.2018 03:00:00 -3,5 -5,3 8 4 WSW 1028,3 10
23.02.2018 02:00:00 -3,6 -5,4 8 4 SW 1028,5 10
23.02.2018 01:00:00 -3,8 -5,3 8 4 SW 1028,9 10
23.02.2018 00:00:00 -3,6 -5,1 8 4 W 1029,2 10
22.02.2018 23:00:00 -3,5 -5,0 5 3 WSW 1029,5 10
22.02.2018 22:00:00 -3,6 -5,4 5 3 W 1029,7 10
22.02.2018 21:00:00 -3,9 -5,2 4 2 SSW 1029,5 10
22.02.2018 20:00:00 -4,1 -5,2 0 0 N 1029,7 10
22.02.2018 19:00:00 -3,0 -5,5 5 3 SSW 1029,5 10
22.02.2018 18:00:00 -2,7 -5,8 11 6 SSE 1029,5 10
22.02.2018 17:00:00 -2,4 -5,2 0 0 N 1029,8 10
22.02.2018 16:00:00 -1,9 -5,4 8 4 S 1029,6 10
22.02.2018 15:00:00 -2,0 -6,0 8 4 SSE 1029,7 10
22.02.2018 14:00:00 -1,5 -6,1 8 4 SE 1030,1 10
22.02.2018 13:00:00 -1,5 -5,5 11 6 SSE 1030,4 10
22.02.2018 12:00:00 -2,0 -5,7 11 6 SSE 1030,3 10
22.02.2018 11:00:00 -2,8 -3,6 4 2 NNW 1030,3 9
22.02.2018 10:00:00 -3,9 -4,2 5 3 NNW 1030,5 10
22.02.2018 09:00:00 -5,2 -5,5 4 2 N 1030,0 7
22.02.2018 08:00:00 -5,5 -5,8 5 3 NNW 1029,8 2,5
22.02.2018 07:00:00 -5,8 -6,1 5 3 NNW 1029,4 5
22.02.2018 06:00:00 -5,8 -6,2 5 3 - 1029,1 6
22.02.2018 05:00:00 -5,7 -6,1 8 4 N 1028,9 4,7
22.02.2018 04:00:00 -6,0 -6,5 9 5 N 1028,9 10
22.02.2018 03:00:00 -7,1 -7,6 11 6 NNW 1028,7 10
22.02.2018 02:00:00 -5,4 -6,2 13 7 N 1028,6 7
22.02.2018 01:00:00 -5,2 -5,7 5 3 N 1028,8 10
22.02.2018 00:00:00 -4,3 -5,1 8 4 N 1028,7 10
21.02.2018 23:00:00 -4,4 -4,8 9 5 N 1028,7 10
21.02.2018 22:00:00 -5,7 -6,0 8 4 NNW 1028,4 10
21.02.2018 21:00:00 -5,5 -5,6 8 4 N 1028,1 10
21.02.2018 20:00:00 -4,3 -4,8 9 5 N 1027,8 10
21.02.2018 19:00:00 -3,2 -3,6 8 4 N 1027,3 10
21.02.2018 18:00:00 -4,3 -4,3 4 2 N 1026,9 5
21.02.2018 17:00:00 -3,1 -3,5 5 3 NNE 1026,6 10
21.02.2018 16:00:00 -2,4 -3,1 8 4 NE 1026,4 4,0
21.02.2018 15:00:00 -2,3 -3,1 8 4 NE 1026,4 3,0
21.02.2018 14:00:00 -1,2 -2,6 0 0 N 1026,6 3,9
21.02.2018 13:00:00 -0,3 -2,7 2 1 E 1026,8 5
21.02.2018 12:00:00 -1,4 -3,3 4 2 N 1026,9 10
21.02.2018 11:00:00 -2,5 -4,2 5 3 NNW 1027,0 10
21.02.2018 10:00:00 -3,3 -4,6 4 2 NNW 1027,1 10
21.02.2018 09:00:00 -3,9 -4,6 8 4 NNW 1027,0 10
21.02.2018 08:00:00 -4,4 -4,5 4 2 NNW 1026,9 10
21.02.2018 07:00:00 -4,7 -5,0 5 3 NNW 1026,8 10
21.02.2018 06:00:00 -4,3 -4,7 5 3 NNW 1027,0 10
21.02.2018 05:00:00 -4,3 -4,4 8 4 NNW 1027,1 10
21.02.2018 04:00:00 -4,6 -4,6 5 3 NW 1027,2 10
21.02.2018 03:00:00 -5,7 -5,7 4 2 NNW 1027,4 8
21.02.2018 02:00:00 -5,3 -5,3 9 5 NNW 1027,7 8
21.02.2018 01:00:00 -3,9 -4,4 8 4 N 1027,6 10
21.02.2018 00:00:00 -3,4 -3,8 11 6 N 1028,1 10
20.02.2018 23:00:00 -3,2 -3,3 9 5 NNW 1027,9 10
20.02.2018 22:00:00 -3,3 -3,3 9 5 N 1027,7 10
20.02.2018 21:00:00 -4,1 -4,2 8 4 N 1027,6 10
20.02.2018 20:00:00 -2,9 -2,9 8 4 N 1027,6 10
20.02.2018 19:00:00 -2,8 -2,8 5 3 N 1027,3 10
20.02.2018 18:00:00 -2,2 -2,2 8 4 N 1027,1 10
20.02.2018 17:00:00 -1,8 -1,9 5 3 N 1026,7 10
20.02.2018 16:00:00 -1,0 -1,4 8 4 NNE 1026,7 10
20.02.2018 15:00:00 -0,7 -1,1 9 5 NNE 1026,9 6
20.02.2018 14:00:00 -0,2 -0,6 5 3 NNE 1027,0 5
20.02.2018 13:00:00 -0,3 -0,4 8 4 NE 1027,0 1,5
20.02.2018 12:00:00 -0,3 -0,3 8 4 NNE 1027,0 1,3
20.02.2018 11:00:00 -0,5 -0,5 9 5 NE 1026,9 1,5
20.02.2018 10:00:00 -0,8 -0,8 11 6 NE 1026,6 1,5
20.02.2018 09:00:00 -0,8 -0,8 11 6 NE 1026,2 3,1
20.02.2018 08:00:00 -0,9 -0,9 13 7 NE 1025,8 2,5
20.02.2018 07:00:00 -0,8 -0,8 13 7 NE 1025,6 2,5
20.02.2018 06:00:00 -0,6 -0,6 13 7 NE 1025,4 3,2
20.02.2018 05:00:00 -0,5 -0,5 15 8 NE 1025,3 0,5
20.02.2018 04:00:00 -0,1 -0,1 16 9 NE 1025,2 1,5
20.02.2018 03:00:00 0,3 0,3 15 8 NE 1025,0 3,6
20.02.2018 02:00:00 0,3 0,3 8 4 NNE 1024,8 1,2
20.02.2018 01:00:00 0,3 0,3 5 3 N 1024,8 1,5
20.02.2018 00:00:00 0,2 0,2 8 4 N 1024,6 2,3
19.02.2018 23:00:00 0,3 0,3 4 2 NNE 1024,4 2,2
19.02.2018 22:00:00 0,3 0,3 4 2 - 1024,3 4,7
19.02.2018 21:00:00 0,4 0,4 8 4 NE 1024,1 5
19.02.2018 20:00:00 0,7 0,7 11 6 NE 1024,0 6
19.02.2018 19:00:00 0,7 0,7 4 2 NE 1023,6 4,0
19.02.2018 18:00:00 0,8 0,8 5 3 NE 1023,4 5
19.02.2018 17:00:00 0,7 0,4 5 3 ENE 1023,0 6
19.02.2018 16:00:00 1,3 0,7 5 3 E 1022,7 7
19.02.2018 15:00:00 1,8 1,1 5 3 ESE 1022,5 8
19.02.2018 14:00:00 1,9 1,0 5 3 SE 1022,4 8
19.02.2018 13:00:00 2,0 0,8 0 0 N 1022,3 7
19.02.2018 12:00:00 1,3 0,9 5 3 SSE 1022,4 6
19.02.2018 11:00:00 0,8 0,7 5 3 SE 1022,2 6
19.02.2018 10:00:00 0,1 0,1 4 2 SSE 1022,0 4,1
19.02.2018 09:00:00 0,3 0,3 4 2 S 1021,9 3,2
19.02.2018 08:00:00 0,1 0,1 4 2 W 1021,9 0,9
19.02.2018 07:00:00 -0,6 -0,6 4 2 S 1021,5 7
19.02.2018 06:00:00 0,0 0,0 5 3 S 1021,5 6
19.02.2018 05:00:00 -0,3 -0,3 4 2 SSE 1021,9 1,9
19.02.2018 04:00:00 0,0 0,0 4 2 SSW 1022,2 2,1
19.02.2018 03:00:00 -0,2 -0,2 8 4 S 1022,5 3,9
19.02.2018 02:00:00 0,0 -0,1 8 4 SSW 1023,1 10
19.02.2018 01:00:00 0,0 -0,1 8 4 S 1023,2 10
19.02.2018 00:00:00 0,1 0,1 8 4 SSW 1023,6 3,0

tt = Température de l'air
td = dewpoint
ff = Vitesse du vent
dd = Direction du vent
ppp = reduced air pressure
vv = visibility

stations d'obs. à proximité